Home   Weather   Rybnik   Past weeks

Flag for Poland Past Weather in Rybnik, Poland — Yesterday and Last 2 Weeks

41 °F


Feels Like: 39 °F
Forecast: 37 / 53 °F
Wind: 3 mph from South

Location: Katowice Airport

Current Time: Oct 22, 2016 at 5:44:17 AM

Latest Report: Oct 22, 2016 at 5:00 AM

Visibility: 1 mi

Pressure: 29.92 "Hg

Humidity: 93%

Dew Point: 39 °F

Location of RybnikLocation

Past Weather in Rybnik — Graph


Rybnik Temperature Yesterday

Maximum temperature yesterday: 45 °F (at 12:00 PM)
Minimum temperature yesterday: 39 °F (at 10:30 PM)
Average temperature yesterday: 43 °F

High & Low Weather Summary for the Past Weeks

High57 °F (Oct 15, 12:00 PM)100% (Oct 7, 5:00 AM)30.36 "Hg (Oct 7, 5:00 AM)
Low27 °F (Oct 7, 5:30 AM)58% (Oct 7, 12:30 PM)29.92 "Hg (Oct 21, 1:30 PM)
Average44 °F89%30.10 "Hg
* Reported Oct 7 4:00 AM — Oct 22 4:00 AM, Rybnik, Weather by CustomWeather, © 2016

Note: Actual official high and low records may vary slightly from our data, if they occured in-between our weather recording intervals... More about our weather records


Rybnik Weather History for the Previous 24 Hours

Scroll right to see more
Time TempWeatherWind HumidityBarometerVisibility
4:00 AM
Sat, Oct 22
41 °FFog.3 mph93%29.92 "Hg1 mi
3:30 AM41 °FFog.3 mph100%29.95 "Hg1 mi
3:00 AM41 °FFog.5 mph100%29.92 "Hg1 mi
2:00 AM39 °FFog.1 mph100%29.92 "Hg0 mi
1:30 AM39 °FFog.1 mph100%29.95 "Hg0 mi
1:00 AM41 °FFog.2 mph100%29.95 "Hg0 mi
12:30 AM41 °FFog.2 mph100%29.95 "Hg0 mi
12:00 AM41 °FFog.5 mph100%29.95 "Hg0 mi
11:30 PM
Fri, Oct 21
41 °FFog.3 mph100%29.95 "Hg0 mi
11:00 PM39 °FFog.3 mph100%29.95 "Hg0 mi
10:30 PM39 °FFog.3 mph100%29.95 "Hg0 mi
10:00 PM41 °FFog.1 mph100%29.95 "Hg0 mi
9:30 PM43 °FQuite cool.2 mph93%29.95 "Hg1 mi
9:00 PM43 °FFog.2 mph100%29.95 "Hg1 mi
8:30 PM43 °FFog.2 mph100%29.95 "Hg1 mi
8:00 PM43 °FFog.1 mph100%29.92 "Hg1 mi
7:30 PM45 °FFog.1 mph93%29.92 "Hg2 mi
7:00 PM45 °FFog.2 mph93%29.92 "Hg2 mi
6:30 PM45 °FFog.2 mph93%29.92 "Hg2 mi
6:00 PM45 °FFog.2 mph93%29.92 "Hg1 mi
5:30 PM45 °FFog.No wind93%29.92 "Hg2 mi
5:00 PM45 °FLight rain. Fog.1 mph93%29.92 "Hg3 mi
4:30 PM45 °FLight rain. Fog.No wind93%29.92 "Hg2 mi
4:00 PM45 °FLight rain. Fog.1 mph93%29.92 "Hg2 mi
3:30 PM45 °FLight rain. Fog.2 mph93%29.92 "Hg3 mi
3:00 PM45 °FLight rain. Fog.2 mph93%29.92 "Hg2 mi
2:30 PM45 °FLight rain. Fog.6 mph93%29.92 "Hg2 mi
2:00 PM45 °FLight rain. Fog.3 mph93%29.95 "Hg3 mi
1:30 PM45 °FLight rain. Fog.1 mph93%29.92 "Hg2 mi
1:00 PM45 °FLight rain. Fog.1 mph93%29.95 "Hg2 mi
12:30 PM45 °FLight rain. Fog.2 mph93%29.95 "Hg2 mi
12:00 PM45 °FLight rain. Fog.3 mph93%29.95 "Hg2 mi
11:30 AM43 °FLight rain. Fog.5 mph100%29.95 "Hg3 mi
11:00 AM43 °FFog.5 mph100%29.95 "Hg3 mi
10:30 AM43 °FFog.6 mph93%29.95 "Hg3 mi
10:00 AM43 °FFog.3 mph93%29.95 "Hg3 mi
9:30 AM43 °FFog.3 mph93%29.95 "Hg2 mi
9:00 AM41 °FFog.5 mph100%29.95 "Hg1 mi
8:30 AM41 °FFog.7 mph100%29.95 "Hg1 mi
8:00 AM41 °FFog.3 mph100%29.95 "Hg1 mi
7:30 AM41 °FFog.5 mph100%29.95 "Hg1 mi
7:00 AM41 °FFog.3 mph100%29.95 "Hg1 mi
6:30 AM41 °FQuite cool.5 mph100%29.95 "Hg1 mi
6:00 AM41 °FFog.5 mph100%29.95 "Hg1 mi
5:30 AM43 °FFog.5 mph93%29.95 "Hg2 mi
5:00 AM43 °FFog.5 mph93%29.95 "Hg3 mi
Weather by CustomWeather, © 2016

See weather overviewHow to use our weather pages